Time,TemperatureF,DewpointF,PressureIn,WindDirection,WindDirectionDegrees,WindSpeedMPH,WindSpeedGustMPH,Humidity,HourlyPrecipIn,Conditions,Clouds,dailyrainin,SoftwareType,DateUTC
2013-02-06 00:01:00,41.0,14.0,29.83,SSE,161,5.0,8.0,32,0.00,,,-99.99,,2013-02-06 07:01:00,
2013-02-06 00:11:00,41.0,14.0,29.83,SSE,163,5.0,7.0,33,0.00,,,-99.99,,2013-02-06 07:11:00,
2013-02-06 00:21:00,41.0,14.0,29.83,South,169,5.0,8.0,33,0.00,,,-99.99,,2013-02-06 07:21:00,
2013-02-06 00:32:00,40.0,14.0,29.83,SSE,167,3.0,7.0,34,0.00,,,-99.99,,2013-02-06 07:32:00,
2013-02-06 00:41:00,40.0,14.0,29.82,SE,141,4.0,7.0,34,0.00,,,-99.99,,2013-02-06 07:41:00,
2013-02-06 00:51:00,40.0,14.0,29.82,SSE,165,3.0,8.0,35,0.00,,,-99.99,,2013-02-06 07:51:00,
2013-02-06 01:01:00,40.0,15.0,29.82,SSE,159,5.0,6.0,35,0.00,,,-99.99,,2013-02-06 08:01:00,
2013-02-06 01:11:00,40.0,14.0,29.82,South,176,4.0,7.0,35,0.00,,,-99.99,,2013-02-06 08:11:00,
2013-02-06 01:21:00,39.0,15.0,29.82,South,170,5.0,7.0,36,0.00,,,-99.99,,2013-02-06 08:21:00,
2013-02-06 01:31:00,39.0,15.0,29.82,SSE,162,4.0,7.0,37,0.00,,,-99.99,,2013-02-06 08:31:00,
2013-02-06 01:41:00,38.0,15.0,29.82,NNE,20,3.0,5.0,38,0.00,,,-99.99,,2013-02-06 08:41:00,
2013-02-06 01:53:00,37.0,15.0,29.82,ENE,58,2.0,6.0,41,0.00,,,-99.99,,2013-02-06 08:53:00,
2013-02-06 02:01:00,36.0,16.0,29.83,NNE,32,4.0,6.0,43,0.00,,,-99.99,,2013-02-06 09:01:00,
2013-02-06 02:11:00,36.0,16.0,29.83,East,90,2.0,5.0,44,0.00,,,-99.99,,2013-02-06 09:11:00,
2013-02-06 02:21:00,35.0,16.0,29.82,NNE,30,2.0,4.0,44,0.00,,,-99.99,,2013-02-06 09:21:00,
2013-02-06 02:31:00,35.0,16.0,29.82,East,84,2.0,3.0,46,0.00,,,-99.99,,2013-02-06 09:31:00,
2013-02-06 02:41:00,35.0,17.0,29.82,ESE,103,3.0,4.0,47,0.00,,,-99.99,,2013-02-06 09:41:00,
2013-02-06 02:51:00,34.0,17.0,29.82,ENE,60,0.0,4.0,49,0.00,,,-99.99,,2013-02-06 09:51:00,
2013-02-06 03:01:00,35.0,16.0,29.82,ESE,115,1.0,4.0,47,0.00,,,-99.99,,2013-02-06 10:01:00,
2013-02-06 03:11:00,33.0,17.0,29.80,East,90,4.0,4.0,50,0.00,,,-99.99,,2013-02-06 10:11:00,
2013-02-06 03:21:00,33.0,17.0,29.82,ESE,121,3.0,6.0,52,0.00,,,-99.99,,2013-02-06 10:21:00,
2013-02-06 03:31:00,34.0,17.0,29.80,SE,129,4.0,5.0,51,0.00,,,-99.99,,2013-02-06 10:31:00,
2013-02-06 03:41:00,34.0,17.0,29.80,ESE,117,4.0,5.0,49,0.00,,,-99.99,,2013-02-06 10:41:00,
2013-02-06 03:51:00,35.0,17.0,29.80,SE,128,5.0,6.0,48,0.00,,,-99.99,,2013-02-06 10:51:00,
2013-02-06 04:01:00,34.0,17.0,29.80,SE,133,3.0,5.0,50,0.00,,,-99.99,,2013-02-06 11:01:00,
2013-02-06 04:11:00,34.0,18.0,29.80,SSE,168,5.0,6.0,52,0.00,,,-99.99,,2013-02-06 11:11:00,
2013-02-06 04:22:00,32.0,18.0,29.80,SSE,165,2.0,6.0,54,0.00,,,-99.99,,2013-02-06 11:22:00,
2013-02-06 04:32:00,33.0,18.0,29.80,SSW,204,4.0,4.0,56,0.00,,,-99.99,,2013-02-06 11:32:00,
2013-02-06 04:42:00,33.0,18.0,29.82,SW,220,4.0,5.0,52,0.00,,,-99.99,,2013-02-06 11:42:00,
2013-02-06 04:52:00,34.0,18.0,29.80,SW,215,3.0,4.0,53,0.00,,,-99.99,,2013-02-06 11:52:00,
2013-02-06 05:01:00,34.0,18.0,29.82,SSW,202,3.0,3.0,53,0.00,,,-99.99,,2013-02-06 12:01:00,
2013-02-06 05:12:00,34.0,18.0,29.82,SE,130,0.0,5.0,51,0.00,,,-99.99,,2013-02-06 12:12:00,
2013-02-06 05:22:00,32.0,18.0,29.82,SE,139,2.0,4.0,57,0.00,,,-99.99,,2013-02-06 12:22:00,
2013-02-06 05:32:00,32.0,18.0,29.82,SE,126,3.0,6.0,57,0.00,,,-99.99,,2013-02-06 12:32:00,
2013-02-06 05:42:00,31.0,18.0,29.82,SSE,155,2.0,5.0,58,0.00,,,-99.99,,2013-02-06 12:42:00,
2013-02-06 05:52:00,31.0,18.0,29.82,SSE,152,5.0,5.0,58,0.00,,,-99.99,,2013-02-06 12:52:00,
2013-02-06 06:01:00,32.0,18.0,29.82,SSE,150,4.0,6.0,57,0.00,,,-99.99,,2013-02-06 13:01:00,
2013-02-06 06:11:00,32.0,18.0,29.82,SE,142,3.0,7.0,55,0.00,,,-99.99,,2013-02-06 13:11:00,
2013-02-06 06:22:00,32.0,18.0,29.82,South,178,5.0,8.0,57,0.00,,,-99.99,,2013-02-06 13:22:00,
2013-02-06 06:31:00,32.0,18.0,29.82,SSE,168,1.0,5.0,57,0.00,,,-99.99,,2013-02-06 13:31:00,
2013-02-06 06:42:00,30.0,18.0,29.82,South,191,2.0,3.0,60,0.00,,,-99.99,,2013-02-06 13:42:00,
2013-02-06 06:52:00,31.0,19.0,29.83,South,172,4.0,5.0,60,0.00,,,-99.99,,2013-02-06 13:52:00,
2013-02-06 07:01:00,33.0,19.0,29.83,South,184,5.0,6.0,57,0.00,,,-99.99,,2013-02-06 14:01:00,
2013-02-06 07:11:00,33.0,19.0,29.83,SSE,153,4.0,6.0,56,0.00,,,-99.99,,2013-02-06 14:11:00,
2013-02-06 07:21:00,32.0,19.0,29.83,South,172,2.0,32.0,60,0.00,,,-99.99,,2013-02-06 14:21:00,
2013-02-06 07:32:00,33.0,19.0,29.84,SSE,160,5.0,6.0,57,0.00,,,-99.99,,2013-02-06 14:32:00,
2013-02-06 07:41:00,34.0,19.0,29.84,South,172,5.0,7.0,55,0.00,,,-99.99,,2013-02-06 14:41:00,
2013-02-06 07:52:00,34.0,19.0,29.84,South,169,5.0,7.0,54,0.00,,,-99.99,,2013-02-06 14:52:00,
2013-02-06 08:01:00,35.0,19.0,29.84,South,177,4.0,7.0,53,0.00,,,-99.99,,2013-02-06 15:01:00,
2013-02-06 08:11:00,36.0,20.0,29.84,SSE,168,6.0,8.0,52,0.00,,,-99.99,,2013-02-06 15:11:00,
2013-02-06 08:21:00,38.0,20.0,29.84,South,184,7.0,8.0,49,0.00,,,-99.99,,2013-02-06 15:21:00,
2013-02-06 08:31:00,40.0,19.0,29.84,SSW,201,5.0,9.0,43,0.00,,,-99.99,,2013-02-06 15:31:00,
2013-02-06 08:41:00,40.0,19.0,29.85,SSW,196,4.0,9.0,42,0.00,,,-99.99,,2013-02-06 15:41:00,
2013-02-06 08:51:00,41.0,19.0,29.85,SSW,192,6.0,9.0,41,0.00,,,-99.99,,2013-02-06 15:51:00,
2013-02-06 09:01:00,42.0,19.0,29.85,SSW,196,7.0,11.0,39,0.00,,,-99.99,,2013-02-06 16:01:00,
2013-02-06 09:11:00,43.0,18.0,29.85,South,188,5.0,11.0,37,0.00,,,-99.99,,2013-02-06 16:11:00,
2013-02-06 09:21:00,45.0,18.0,29.85,SSW,198,5.0,9.0,35,0.00,,,-99.99,,2013-02-06 16:21:00,
2013-02-06 09:32:00,46.0,18.0,29.85,SW,218,9.0,10.0,33,0.00,,,-99.99,,2013-02-06 16:32:00,
2013-02-06 09:42:00,47.0,18.0,29.85,SSW,208,7.0,11.0,32,0.00,,,-99.99,,2013-02-06 16:42:00,
2013-02-06 09:51:00,49.0,18.0,29.84,SSW,200,5.0,9.0,30,0.00,,,-99.99,,2013-02-06 16:51:00,
2013-02-06 10:01:00,50.0,19.0,29.84,SSW,210,8.0,9.0,29,0.00,,,-99.99,,2013-02-06 17:01:00,
2013-02-06 10:11:00,52.0,19.0,29.84,SW,224,7.0,8.0,28,0.00,,,-99.99,,2013-02-06 17:11:00,
2013-02-06 10:21:00,53.0,18.0,29.84,SSW,193,4.0,9.0,26,0.00,,,-99.99,,2013-02-06 17:21:00,
2013-02-06 10:32:00,54.0,18.0,29.84,SSE,163,5.0,7.0,24,0.00,,,-99.99,,2013-02-06 17:32:00,
2013-02-06 10:41:00,55.0,17.0,29.84,SSE,156,3.0,6.0,22,0.00,,,-99.99,,2013-02-06 17:41:00,
2013-02-06 10:52:00,55.0,17.0,29.84,SSW,210,3.0,7.0,22,0.00,,,-99.99,,2013-02-06 17:52:00,
2013-02-06 11:01:00,55.0,17.0,29.84,WSW,243,3.0,5.0,22,0.00,,,-99.99,,2013-02-06 18:01:00,
2013-02-06 11:11:00,55.0,17.0,29.84,WSW,250,3.0,4.0,22,0.00,,,-99.99,,2013-02-06 18:11:00,
2013-02-06 11:23:00,55.0,17.0,29.84,WNW,298,0.0,4.0,22,0.00,,,-99.99,,2013-02-06 18:23:00,
2013-02-06 11:32:00,56.0,17.0,29.83,NE,53,5.0,7.0,21,0.00,,,-99.99,,2013-02-06 18:32:00,
2013-02-06 11:41:00,55.0,17.0,29.83,NNW,342,5.0,8.0,22,0.00,,,-99.99,,2013-02-06 18:41:00,
2013-02-06 11:52:00,56.0,17.0,29.83,North,358,5.0,6.0,22,0.00,,,-99.99,,2013-02-06 18:52:00,
2013-02-06 12:01:00,55.0,17.0,29.83,NE,39,4.0,10.0,22,0.00,,,-99.99,,2013-02-06 19:01:00,
2013-02-06 12:11:00,54.0,17.0,29.82,North,355,6.0,13.0,23,0.00,,,-99.99,,2013-02-06 19:11:00,
2013-02-06 12:21:00,54.0,17.0,29.82,NNW,336,6.0,13.0,23,0.00,,,-99.99,,2013-02-06 19:21:00,
2013-02-06 12:31:00,53.0,17.0,29.82,WNW,298,6.0,12.0,24,0.00,,,-99.99,,2013-02-06 19:31:00,
2013-02-06 12:41:00,54.0,18.0,29.82,NE,54,8.0,10.0,24,0.00,,,-99.99,,2013-02-06 19:41:00,
2013-02-06 12:52:00,53.0,18.0,29.82,NNE,31,6.0,11.0,24,0.00,,,-99.99,,2013-02-06 19:52:00,
2013-02-06 13:01:00,53.0,18.0,29.80,North,349,5.0,12.0,24,0.00,,,-99.99,,2013-02-06 20:01:00,
2013-02-06 13:11:00,53.0,18.0,29.80,NE,41,7.0,13.0,25,0.00,,,-99.99,,2013-02-06 20:11:00,
2013-02-06 13:21:00,53.0,18.0,29.80,NE,46,10.0,13.0,25,0.00,,,-99.99,,2013-02-06 20:21:00,
2013-02-06 13:31:00,53.0,18.0,29.80,NNE,14,7.0,17.0,25,0.00,,,-99.99,,2013-02-06 20:31:00,
2013-02-06 13:41:00,53.0,18.0,29.80,NE,48,8.0,13.0,25,0.00,,,-99.99,,2013-02-06 20:41:00,
2013-02-06 13:52:00,53.0,18.0,29.80,NNE,25,12.0,16.0,26,0.00,,,-99.99,,2013-02-06 20:52:00,
2013-02-06 14:01:00,53.0,18.0,29.79,NE,50,9.0,14.0,26,0.00,,,-99.99,,2013-02-06 21:01:00,
2013-02-06 14:11:00,52.0,18.0,29.79,NNE,33,13.0,17.0,26,0.00,,,-99.99,,2013-02-06 21:11:00,
2013-02-06 14:21:00,52.0,18.0,29.80,NNE,27,5.0,12.0,26,0.00,,,-99.99,,2013-02-06 21:21:00,
2013-02-06 14:32:00,52.0,18.0,29.80,NNE,20,4.0,15.0,26,0.00,,,-99.99,,2013-02-06 21:32:00,
2013-02-06 14:41:00,52.0,19.0,29.80,NNE,14,5.0,14.0,27,0.00,,,-99.99,,2013-02-06 21:41:00,
2013-02-06 14:51:00,52.0,19.0,29.80,North,6,9.0,16.0,27,0.00,,,-99.99,,2013-02-06 21:51:00,
2013-02-06 15:01:00,51.0,19.0,29.82,NE,48,9.0,19.0,28,0.00,,,-99.99,,2013-02-06 22:01:00,
2013-02-06 15:11:00,51.0,20.0,29.82,East,91,15.0,15.0,29,0.00,,,-99.99,,2013-02-06 22:11:00,
2013-02-06 15:21:00,51.0,20.0,29.83,ENE,70,6.0,16.0,29,0.00,,,-99.99,,2013-02-06 22:21:00,
2013-02-06 15:31:00,50.0,21.0,29.83,East,84,10.0,12.0,31,0.00,,,-99.99,,2013-02-06 22:31:00,
2013-02-06 15:41:00,51.0,20.0,29.83,NE,38,13.0,18.0,29,0.00,,,-99.99,,2013-02-06 22:41:00,
2013-02-06 15:51:00,51.0,21.0,29.84,NE,56,7.0,23.0,30,0.00,,,-99.99,,2013-02-06 22:51:00,
2013-02-06 16:01:00,51.0,23.0,29.85,West,261,12.0,23.0,33,0.00,,,-99.99,,2013-02-06 23:01:00,
2013-02-06 16:11:00,50.0,24.0,29.85,NW,322,6.0,16.0,36,0.00,,,-99.99,,2013-02-06 23:11:00,
2013-02-06 16:21:00,50.0,24.0,29.85,ENE,76,7.0,15.0,36,0.00,,,-99.99,,2013-02-06 23:21:00,
2013-02-06 16:31:00,49.0,24.0,29.85,NNE,16,2.0,11.0,37,0.00,,,-99.99,,2013-02-06 23:31:00,
2013-02-06 16:41:00,49.0,24.0,29.86,NE,50,7.0,10.0,37,0.00,,,-99.99,,2013-02-06 23:41:00,
2013-02-06 16:52:00,49.0,24.0,29.86,ENE,61,3.0,8.0,37,0.00,,,-99.99,,2013-02-06 23:52:00,
2013-02-06 17:01:00,49.0,24.0,29.87,NNW,336,4.0,7.0,38,0.00,,,-99.99,,2013-02-07 00:01:00,
2013-02-06 17:11:00,48.0,25.0,29.87,NNE,16,3.0,7.0,39,0.00,,,-99.99,,2013-02-07 00:11:00,
2013-02-06 17:21:00,48.0,25.0,29.89,NW,313,2.0,8.0,41,0.00,,,-99.99,,2013-02-07 00:21:00,
2013-02-06 17:31:00,47.0,26.0,29.89,WSW,248,5.0,11.0,43,0.00,,,-99.99,,2013-02-07 00:31:00,
2013-02-06 17:41:00,47.0,27.0,29.90,NNW,333,7.0,11.0,45,0.00,,,-99.99,,2013-02-07 00:41:00,
2013-02-06 17:51:00,47.0,26.0,29.91,NNE,29,8.0,16.0,43,0.00,,,-99.99,,2013-02-07 00:51:00,
2013-02-06 18:01:00,46.0,26.0,29.91,NNW,336,5.0,17.0,45,0.00,,,-99.99,,2013-02-07 01:01:00,
2013-02-06 18:11:00,46.0,26.0,29.92,NE,40,4.0,13.0,45,0.00,,,-99.99,,2013-02-07 01:11:00,
2013-02-06 18:21:00,46.0,25.0,29.93,NNE,19,10.0,13.0,44,0.00,,,-99.99,,2013-02-07 01:21:00,
2013-02-06 18:31:00,45.0,29.0,29.93,North,350,6.0,15.0,52,0.00,,,-99.99,,2013-02-07 01:31:00,
2013-02-06 18:41:00,44.0,29.0,29.94,SSE,166,2.0,15.0,54,0.00,,,-99.99,,2013-02-07 01:41:00,
2013-02-06 18:52:00,43.0,30.0,29.94,NNE,22,12.0,18.0,60,0.00,,,-99.99,,2013-02-07 01:52:00,
2013-02-06 19:01:00,42.0,31.0,29.96,NNW,336,3.0,16.0,64,0.00,,,-99.99,,2013-02-07 02:01:00,
2013-02-06 19:11:00,41.0,30.0,29.97,NNE,27,15.0,18.0,63,0.00,,,-99.99,,2013-02-07 02:11:00,
2013-02-06 19:21:00,40.0,31.0,29.97,ENE,57,7.0,18.0,71,0.00,,,-99.99,,2013-02-07 02:21:00,
2013-02-06 19:31:00,40.0,32.0,29.98,NE,50,7.0,16.0,73,0.00,,,-99.99,,2013-02-07 02:31:00,
2013-02-06 19:41:00,40.0,32.0,29.98,NE,50,7.0,16.0,73,0.00,,,-99.99,,2013-02-07 02:41:00,
2013-02-06 19:51:00,40.0,32.0,29.98,NE,50,7.0,16.0,73,0.00,,,-99.99,,2013-02-07 02:51:00,
2013-02-06 20:02:00,39.0,31.0,29.99,ESE,105,4.0,6.0,72,0.00,,,-99.99,,2013-02-07 03:02:00,
2013-02-06 20:11:00,39.0,31.0,29.99,NE,48,5.0,11.0,74,0.00,,,-99.99,,2013-02-07 03:11:00,
2013-02-06 20:21:00,38.0,32.0,30.00,NNE,27,5.0,10.0,76,0.01,,,-99.99,,2013-02-07 03:21:00,
2013-02-06 20:31:00,37.0,32.0,30.00,North,2,5.0,8.0,81,0.01,,,-99.99,,2013-02-07 03:31:00,
2013-02-06 20:41:00,37.0,32.0,30.00,ESE,111,4.0,6.0,83,0.01,,,-99.99,,2013-02-07 03:41:00,
2013-02-06 20:51:00,36.0,32.0,30.01,ESE,110,5.0,7.0,85,0.02,,,-99.99,,2013-02-07 03:51:00,
2013-02-06 21:01:00,36.0,33.0,30.01,SE,130,4.0,8.0,88,0.02,,,-99.99,,2013-02-07 04:01:00,
2013-02-06 21:11:00,36.0,33.0,30.03,SSE,167,5.0,7.0,89,0.02,,,-99.99,,2013-02-07 04:11:00,
2013-02-06 21:22:00,36.0,33.0,30.03,South,182,5.0,8.0,90,0.01,,,-99.99,,2013-02-07 04:22:00,
2013-02-06 21:31:00,36.0,33.0,30.03,SSE,157,6.0,7.0,91,0.01,,,-99.99,,2013-02-07 04:31:00,
2013-02-06 21:41:00,35.0,33.0,30.04,South,178,7.0,8.0,92,0.01,,,-99.99,,2013-02-07 04:41:00,
2013-02-06 21:52:00,35.0,33.0,30.04,South,179,5.0,9.0,92,0.00,,,-99.99,,2013-02-07 04:52:00,
2013-02-06 22:02:00,35.0,33.0,30.04,SE,146,4.0,8.0,92,0.00,,,-99.99,,2013-02-07 05:02:00,
2013-02-06 22:11:00,35.0,33.0,30.04,South,170,5.0,8.0,92,0.00,,,-99.99,,2013-02-07 05:11:00,
2013-02-06 22:21:00,35.0,33.0,30.04,SSW,210,6.0,9.0,91,0.00,,,-99.99,,2013-02-07 05:21:00,
2013-02-06 22:32:00,35.0,33.0,30.05,South,173,5.0,8.0,91,0.00,,,-99.99,,2013-02-07 05:32:00,
2013-02-06 22:42:00,35.0,33.0,30.05,SSE,152,7.0,9.0,91,0.00,,,-99.99,,2013-02-07 05:42:00,
2013-02-06 22:52:00,35.0,33.0,30.06,SSE,166,4.0,7.0,92,0.00,,,-99.99,,2013-02-07 05:52:00,
2013-02-06 23:02:00,35.0,33.0,30.06,SSE,163,4.0,7.0,92,0.00,,,-99.99,,2013-02-07 06:02:00,
2013-02-06 23:11:00,35.0,33.0,30.06,SE,130,5.0,6.0,92,0.00,,,-99.99,,2013-02-07 06:11:00,
2013-02-06 23:22:00,35.0,33.0,30.06,SSE,150,6.0,12.0,92,0.00,,,-99.99,,2013-02-07 06:22:00,
2013-02-06 23:31:00,35.0,32.0,30.07,ESE,122,2.0,8.0,90,0.00,,,-99.99,,2013-02-07 06:31:00,
2013-02-06 23:43:00,35.0,32.0,30.06,East,101,3.0,7.0,89,0.00,,,-99.99,,2013-02-07 06:43:00,
2013-02-06 23:52:00,35.0,31.0,30.07,East,84,3.0,9.0,87,0.00,,,-99.99,,2013-02-07 06:52:00,